EHI
5 4 5 6 6 6 5 3 2 1 2 6 7 7 9 11 12 12 11 9 10 10 8 6 6 8 11 13 15 16 13 9 7 7 5 2 2 4 6 6 6 5 4
5 4 5 6 6 5 4 2 2 1 2 4 6 7 8 9 10 10 8 7 8 9 8 8 8 8 9 11 13 13 11 8 9 10 8 3 3 4 4 6 6 4 4
4 5 5 5 4 4 2 1 1 1 2 2 4 6 8 9 8 7 6 5 5 6 7 8 8 6 6 7 9 10 9 7 8 10 9 6 5 4 3 4 4 4 3
6 5 4 5 5 4 2 1 0 1 1 1 2 4 6 6 6 6 6 5 4 4 5 5 5 5 5 6 7 8 8 6 7 8 7 7 6 4 2 2 3 3 4
10 8 6 6 6 4 2 1 0 0 0 0 1 2 2 2 2 3 3 2 2 3 3 3 3 5 6 6 6 6 7 8 8 7 6 6 5 4 4 3 4 4 4
15 13 10 7 6 4 1 0 0 0 0 0 1 1 1 0 0 1 1 0 1 2 3 3 3 4 5 5 4 5 7 9 9 8 6 4 4 4 6 6 5 4 4
17 15 11 7 4 2 0 0 0 0 0 0 0 0 0 0 0 0 0 0 0 1 1 2 2 3 3 3 3 4 5 6 6 5 4 3 3 4 8 9 7 4 3
15 13 9 6 3 1 1 0 0 0 0 0 0 0 0 0 0 0 0 0 0 0 0 1 1 1 1 2 2 2 2 2 2 1 1 2 3 5 9 11 8 5 4
13 10 8 6 4 3 1 0 0 0 0 0 0 0 0 0 0 0 0 0 0 0 0 0 0 0 0 1 1 1 1 0 0 0 0 1 2 5 8 9 8 6 4
10 8 6 5 4 3 1 0 0 0 0 0 0 0 0 0 0 0 0 0 0 0 0 0 0 0 0 0 0 0 0 0 0 0 0 0 1 3 5 5 5 6 5
6 5 3 3 3 1 0 0 0 0 0 0 0 0 0 0 0 0 0 0 0 0 0 0 0 0 0 0 0 0 0 0 0 0 0 0 0 1 1 1 2 4 4
3 2 1 2 2 1 0 0 0 0 0 0 0 0 0 0 0 0 0 0 0 0 0 0 0 0 0 0 0 0 0 0 0 0 0 0 0 0 0 0 1 3 4
1 0 0 1 1 0 0 0 0 0 0 0 0 0 0 0 0 0 0 0 0 0 0 0 0 0 0 0 0 0 0 0 0 0 0 0 0 0 0 0 1 2 3
0 0 0 0 0 0 0 0 0 0 0 0 0 0 0 0 0 0 0 0 0 0 0 0 0 0 0 0 0 0 0 0 0 0 0 0 0 0 0 0 0 1 2
0 0 0 0 0 0 0 0 0 0 0 0 0 0 0 0 0 0 0 0 0 0 0 0 0 0 0 0 0 0 0 0 0 0 0 0 0 0 0 0 0 1 2
0 0 0 0 0 0 0 0 0 0 0 0 0 0 0 0 0 0 0 0 0 0 0 0 0 0 0 0 0 0 0 0 0 0 0 0 0 0 0 0 0 0 1
0 0 0 0 0 0 0 0 0 0 0 0 0 0 0 0 0 0 0 0 0 0 0 0 0 0 0 0 0 0 0 0 0 0 0 0 0 0 0 0 0 0 0
0 0 0 0 0 0 0 0 0 0 0 0 0 0 0 0 0 0 0 0 0 0 0 0 0 0 0 0 0 0 0 0 0 0 0 0 0 0 0 0 0 0 0
0 0 0 0 0 0 0 0 0 0 0 0 0 0 0 0 0 0 0 0 0 0 0 0 0 0 0 0 0 0 0 0 0 0 0 0 0 0 0 0 0 0 0
0 0 0 0 0 0 0 0 0 0 0 0 0 0 0 0 0 0 0 0 0 0 0 0 0 0 0 0 0 0 0 0 0 0 0 0 0 0 0 0 0 0 0
0 0 0 0 0 0 0 0 0 0 0 0 0 0 0 0 0 0 0 0 0 0 0 0 0 0 0 0 0 0 0 0 0 0 0 0 0 0 0 0 0 0 0
0 0 0 0 0 0 0 0 0 0 0 0 0 0 0 0 0 0 0 0 0 0 0 0 0 0 0 0 0 0 0 0 0 0 0 0 0 0 0 0 0 0 0
0 0 0 0 0 0 0 0 0 0 0 0 0 0 0 0 0 0 0 0 0 0 0 0 0 0 0 0 0 0 0 0 0 0 0 0 0 0 0 0 0 0 0
0 0 0 0 0 0 0 0 0 0 0 0 0 0 0 0 0 0 0 0 0 0 0 0 0 0 0 0 0 0 0 0 0 0 0 0 0 0 0 0 0 0 0
0 0 0 0 0 0 0 0 0 0 0 0 0 0 0 0 0 0 0 0 0 0 0 0 0 0 0 0 0 0 0 0 0 0 0 0 0 0 0 0 0 0 0
0 0 0 0 0 0 0 0 0 0 0 0 0 0 0 0 0 0 0 0 0 0 0 0 0 0 0 0 0 0 0 0 0 0 0 0 0 0 0 0 0 0 0
Wind_Speed
8 7 7 7 6 6 6 6 5 4 2 1 1 1 2 2 3 3 4 3 2 1 1 1 1 2 1 2 3 4 5 4 3 4 4 4 5 4 4 4 3 4 4
8 6 6 6 6 7 6 6 5 4 3 2 1 1 1 2 3 3 4 4 4 3 1 1 1 1 1 2 3 3 4 4 4 4 4 4 4 5 4 3 3 3 3
8 7 6 6 7 7 6 6 6 5 4 2 2 2 2 2 3 4 3 5 5 4 3 2 2 2 2 1 2 3 4 4 4 4 4 4 3 1 3 3 2 2 2
8 8 7 7 7 6 6 7 6 6 5 4 3 3 3 3 4 3 4 4 5 5 4 3 2 3 2 2 3 2 4 5 5 4 4 5 3 3 2 2 2 2 1
9 9 8 7 7 6 6 6 7 7 7 7 6 5 5 4 3 3 4 4 5 5 5 4 4 3 3 3 3 3 4 4 5 4 4 4 4 6 5 4 2 1 0
10 9 9 8 7 6 6 6 7 7 7 7 7 7 7 5 5 5 4 3 3 4 6 5 4 3 3 3 3 3 4 4 4 4 4 4 4 4 5 5 4 2 1
11 10 10 9 7 7 6 6 7 7 7 7 7 7 6 5 6 5 5 4 4 4 6 6 5 4 4 4 4 3 3 3 4 4 4 4 5 5 4 4 4 3 1
11 10 9 8 8 7 6 6 7 7 6 7 7 6 6 4 5 6 5 5 4 5 6 5 4 4 4 4 3 3 3 2 3 4 4 4 5 5 5 5 4 3 2
11 11 9 9 8 7 7 7 7 7 6 6 6 6 6 6 6 5 5 5 5 4 5 5 5 4 4 4 4 3 3 3 3 4 4 4 4 4 5 5 5 5 4
11 10 9 8 8 7 7 7 6 6 6 6 5 5 6 6 6 6 7 6 6 5 5 5 5 5 5 5 4 3 3 3 3 2 3 3 3 3 4 4 5 5 4
10 9 9 8 8 7 7 6 6 6 5 5 5 5 5 6 6 6 6 6 6 5 5 5 5 6 6 6 5 5 5 4 4 3 3 3 3 3 3 3 3 3 3
9 9 9 8 7 7 7 6 5 5 5 5 5 5 5 6 6 6 6 6 6 5 5 5 6 6 6 6 6 6 6 5 5 5 4 3 2 2 1 1 2 2 3
9 8 8 7 6 6 6 5 5 5 4 4 5 6 6 6 6 6 6 6 6 6 6 6 6 6 6 6 6 6 6 6 5 5 4 4 3 2 1 1 2 3 5
8 8 7 7 6 6 5 5 5 5 4 4 5 6 6 6 6 5 6 6 6 6 6 6 6 6 6 7 6 6 6 6 6 6 6 5 4 2 1 2 3 5 7
7 7 7 6 6 6 5 5 5 4 4 4 5 5 5 5 5 5 6 6 6 6 6 6 7 7 7 8 8 6 6 6 6 7 7 7 7 7 4 2 4 6 6
6 6 6 6 6 6 5 5 4 4 4 4 5 5 5 5 5 5 5 6 6 6 7 7 8 9 8 10 11 8 6 6 7 6 6 6 6 7 7 7 5 4 6
6 5 5 6 6 6 5 5 5 4 4 4 5 5 5 5 5 5 6 6 6 6 6 7 8 8 9 10 10 10 6 7 7 6 6 6 6 6 7 8 8 8 6
6 5 5 5 6 6 5 5 5 4 4 4 5 5 4 5 4 5 6 6 5 5 6 7 7 7 9 10 10 10 6 7 7 7 7 7 7 7 6 8 9 8 7
6 6 6 6 6 6 5 5 5 5 4 4 5 4 4 4 4 5 5 5 5 5 5 6 7 7 8 11 11 10 5 6 8 8 9 8 8 7 5 7 9 10 8
6 7 6 7 7 6 5 5 5 4 4 4 4 4 4 4 4 5 4 4 4 4 5 6 7 7 8 10 12 11 4 6 6 7 8 12 9 8 7 6 8 9 8
7 7 6 6 6 6 5 5 5 5 5 4 4 4 4 4 4 4 3 3 4 5 5 6 6 7 7 8 11 12 5 5 5 6 7 8 9 9 9 6 8 7 6
7 7 6 6 6 5 5 5 5 5 5 4 5 5 4 3 4 3 3 3 3 4 4 4 4 5 6 7 8 9 9 7 6 6 7 7 8 9 8 7 6 3 1
7 6 7 7 6 5 4 6 6 5 5 5 5 5 4 4 3 3 3 3 2 2 3 3 4 4 4 5 4 5 7 7 5 6 7 5 4 5 7 6 2 1 2
7 6 7 7 6 5 5 5 6 5 5 5 5 4 4 4 4 2 2 3 3 3 3 3 3 3 4 4 3 3 4 4 4 4 5 3 3 4 5 3 2 2 4
6 6 6 6 7 6 6 5 5 4 5 5 4 4 4 4 3 4 4 4 6 6 4 4 3 3 4 6 8 6 5 4 4 1 3 3 4 3 4 4 4 3 3
6 6 6 6 6 6 6 5 5 4 5 5 4 3 3 3 3 4 5 6 5 4 4 5 6 4 5 4 5 5 5 5 6 3 2 3 3 3 3 3 3 2 3
Wind_Direction
117 109 98 91 85 78 70 61 51 37 19 23 20 98 98 86 72 64 48 39 36 32 314 270 220 258 250 267 266 258 247 241 236 247 248 242 238 240 242 239 241 233 234
135 122 108 98 86 77 70 67 55 42 30 40 31 50 75 81 77 61 48 38 34 19 19 352 291 288 269 258 269 267 263 249 233 253 260 247 224 210 218 220 223 238 231
152 140 122 102 87 74 63 59 49 40 33 29 87 110 125 107 78 60 51 37 33 32 21 13 338 308 280 274 278 274 264 259 242 239 256 265 262 266 191 206 223 239 238
158 143 128 110 91 81 74 66 57 48 40 36 56 67 68 74 57 49 50 47 43 36 29 16 358 326 311 302 281 266 265 260 255 241 239 258 279 268 255 206 200 206 226
157 141 128 114 99 87 78 72 65 55 48 46 56 62 68 73 72 64 65 48 50 39 28 18 5 348 328 321 302 288 271 263 262 258 254 257 250 245 251 253 224 193 222
149 137 127 118 107 96 85 78 72 61 54 55 56 60 66 66 63 53 47 42 45 39 29 17 7 352 344 331 313 295 282 279 274 268 257 250 253 250 249 249 240 233 234
149 142 137 128 114 101 91 85 80 71 64 63 60 60 63 66 62 47 46 30 29 29 23 12 3 359 352 338 327 305 301 289 274 264 263 257 254 261 257 250 242 238 230
149 145 140 131 123 112 102 90 83 77 71 67 64 58 51 51 55 44 35 38 28 25 15 9 4 1 355 351 340 316 309 304 282 273 271 266 260 258 247 238 225 221 209
148 144 140 134 124 114 100 92 87 81 72 69 68 63 54 48 48 43 36 42 32 24 19 11 12 15 14 7 347 353 329 309 290 279 271 269 268 259 252 238 227 221 213
146 143 139 131 121 112 102 94 91 84 75 68 59 63 62 57 51 44 42 35 31 28 18 17 23 24 20 12 360 356 350 320 315 306 297 289 276 268 255 240 235 229 218
143 142 138 132 128 120 111 104 97 91 83 74 69 65 64 61 57 51 44 36 30 27 28 27 28 26 22 17 13 9 358 352 347 328 309 299 292 277 265 245 223 206 182
141 139 137 135 133 123 116 108 103 98 88 80 76 70 64 59 53 49 41 35 32 27 30 29 32 29 26 20 18 16 14 9 1 352 341 326 317 309 293 249 187 173 162
140 138 138 137 131 124 117 112 104 92 85 83 80 71 61 57 51 46 41 36 36 34 34 35 35 33 27 25 22 21 23 21 15 9 8 3 7 9 37 107 140 141 134
139 140 140 137 133 131 127 116 103 96 86 84 78 70 58 54 50 45 43 41 40 39 37 39 38 34 29 25 24 25 29 30 30 28 25 22 22 24 70 103 124 128 128
142 143 143 140 138 133 125 112 105 97 92 90 82 75 66 59 54 49 46 43 40 43 42 43 43 39 35 21 12 21 34 36 42 42 40 39 40 33 35 86 126 137 137
144 146 149 147 146 138 131 123 113 104 101 93 86 82 76 69 60 54 50 48 44 42 44 45 46 43 36 12 5 2 33 36 44 48 51 61 60 65 62 63 75 110 140
146 146 151 148 143 141 136 128 119 113 109 100 93 88 84 76 63 55 54 52 49 48 46 48 49 48 36 15 9 2 27 46 44 45 47 60 64 75 92 94 94 85 87
144 142 138 133 133 132 130 125 118 114 110 104 98 94 86 78 67 61 57 54 52 49 51 51 51 49 37 15 4 348 44 56 51 49 52 60 60 58 75 97 94 91 82
130 134 135 132 132 131 131 127 121 116 110 103 98 93 85 77 68 64 59 54 56 54 53 56 54 50 42 19 3 349 63 66 60 55 49 53 69 39 32 97 101 98 94
119 127 131 130 131 130 129 124 122 116 108 103 97 90 82 76 69 67 63 61 60 65 65 60 54 50 44 26 10 351 58 70 73 73 71 54 48 37 30 89 101 101 102
122 132 134 130 129 133 134 128 123 115 112 108 101 92 86 84 80 75 75 74 70 65 65 67 64 55 44 44 27 9 24 58 65 70 70 60 43 43 38 55 83 86 100
129 132 130 124 127 137 139 128 119 116 117 115 107 97 89 84 85 77 73 74 79 93 85 77 71 68 61 46 36 27 24 17 61 63 70 69 55 57 52 68 75 74 115
131 133 131 124 126 138 138 128 126 129 129 122 105 95 89 82 85 92 92 90 71 67 79 81 78 72 75 82 60 48 38 30 53 65 63 68 81 102 92 84 69 235 127
135 138 133 130 130 130 124 122 128 135 130 119 110 105 102 100 91 82 89 80 66 61 59 60 70 80 83 66 57 88 110 122 114 110 118 123 76 91 98 130 144 90 69
136 139 138 137 134 136 135 132 135 139 128 119 115 114 108 97 96 78 47 37 50 31 13 33 45 53 67 41 8 357 31 31 43 32 141 131 127 120 112 104 94 105 122
138 142 141 136 137 143 137 136 140 141 137 132 131 125 123 121 126 120 111 64 52 65 49 26 9 52 50 25 18 24 21 2 337 318 94 92 93 91 95 105 110 103 90